Tracking 27112 objects as of 26-Mar-2023
HD Live streaming from Space Station
objects crossing your sky now

STARLINK-5231

Track STARLINK-5231 now!
10-day predictions
STARLINK-5231 is classified as:


NORAD ID: 54182
Int'l Code: 2022-141AB
Perigee: 551.0 km
Apogee: 552.8 km
Inclination: 53.2 °
Period: 95.5 minutes
Semi major axis: 6922 km
RCS: Unknown
Launch date: October 28, 2022
Source: United States (US)
Launch site: AIR FORCE WESTERN TEST RANGE (AFWTR)
Your satellite tracking list
Your tracking list is empty




NASA's NSSDC Master Catalog

Two Line Element Set (TLE):
1 54182U 22141AB  23085.15352449 -.00002642  00000-0 -15499-3 0  9998
2 54182  53.2199 139.7853 0001319  83.4935 276.6206 15.07201804 23544
Source of the keplerian elements: AFSPC